User: anonymous   Login
Location: Coffee Creek Observatory
(38.8077°N, 94.7179°W)
Time: 23:09:07
(UTC-05:00)
Language:

Lacrosse 4 Rocket - Orbit

View from above orbital plane
View from above orbital plane
View from above satellite
View from above satellite

Ground track
Ground track

The orbit data is extracted from the following two-line orbital elements,

1 26474U 00047B   15148.45487637  .00000902  00000-0  92287-4 0  9990
2 26474 067.9938 115.9297 0053728 065.9331 294.7419 14.94440103803167
Epoch (UTC): 28 May 2015 10:55:01
Eccentricity: 0.0053728
inclination: 67.9938°
perigee height: 547 km
apogee height: 621 km
right ascension of ascending node: 115.9297°
argument of perigee: 65.9331°
revolutions per day: 14.94440103
mean anomaly at epoch: 294.7419°
orbit number at epoch: 80316

The dashed part of the orbit path shows where the satellite is in the earth's shadow,  

DLR